Theta_e
315 316 317 317 317 317 317 317 317 315 315 315 315 316 315 316 316 310 304 317 324 333 330 326 323 320 318 313 313 313 303 299 298 297 297 304 308 312 315 313 313 315 312 317 324
314 314 315 317 316 317 317 318 316 315 315 315 315 315 315 316 308 303 316 322 326 331 325 320 316 317 312 311 312 309 302 300 297 297 298 301 308 311 311 311 310 312 317 322 323
312 313 314 315 315 316 318 318 318 317 317 317 317 317 316 314 302 304 319 322 325 328 327 323 320 315 310 311 309 308 302 302 299 304 302 302 308 310 310 307 311 311 314 319 320
312 313 313 314 315 315 316 316 317 317 317 317 317 317 316 308 287 309 318 321 324 327 326 320 317 311 306 306 308 304 306 303 306 305 303 303 308 306 307 307 314 316 319 319 318
311 311 312 313 314 315 315 316 316 318 317 317 317 316 310 299 300 315 318 318 321 324 321 317 313 311 306 306 304 303 302 307 307 305 302 305 304 305 304 314 316 317 318 317 316
310 310 311 312 313 315 315 316 317 317 317 317 317 317 303 293 312 315 315 317 320 319 320 319 315 314 308 306 306 303 304 306 307 305 303 299 302 304 307 313 316 315 313 315 315
309 309 310 311 313 314 315 316 316 317 317 318 317 310 299 297 313 314 315 317 319 319 317 320 318 313 310 302 305 305 302 305 305 304 303 301 300 299 307 314 313 313 313 314 315
308 308 309 310 312 314 315 315 316 316 317 317 316 310 299 314 314 312 313 316 319 320 319 320 316 309 307 306 305 300 303 298 302 305 302 301 296 301 305 309 312 310 311 312 314
307 308 308 309 312 313 315 314 315 317 316 315 310 306 298 313 307 311 312 313 316 316 317 319 314 306 305 301 298 299 294 297 297 303 302 300 295 297 304 305 307 308 309 311 312
306 307 308 308 311 314 313 313 314 312 311 310 310 301 303 300 305 308 313 314 312 313 311 311 306 302 302 300 292 294 295 297 296 299 301 297 296 297 299 305 305 305 307 309 310
305 307 307 308 310 313 305 301 297 297 302 298 298 299 301 306 308 307 308 310 312 308 302 305 300 297 299 301 299 299 297 295 298 300 299 299 298 296 297 295 296 299 304 306 308
305 306 306 308 312 309 300 296 297 298 294 303 303 302 304 306 301 305 310 305 305 299 303 300 294 302 304 303 300 299 297 294 298 300 299 296 296 297 297 296 295 296 298 303 301
305 305 306 309 311 300 294 294 298 298 293 298 302 300 300 305 300 301 305 304 300 296 298 296 296 302 303 301 298 298 296 293 294 297 297 294 293 293 294 295 293 295 297 298 300
306 305 306 308 301 297 292 297 299 297 284 288 296 298 302 304 298 306 306 302 299 295 295 293 298 300 299 298 300 295 301 298 295 294 289 295 287 293 293 291 292 294 294 296 298
306 304 305 305 295 293 295 297 298 295 272 290 295 305 303 299 299 300 307 302 294 294 296 289 293 299 298 298 300 297 301 298 297 294 292 290 287 292 291 288 290 293 294 296 298
306 304 304 297 295 293 295 295 292 279 272 286 294 295 296 297 298 301 300 303 301 295 294 292 297 295 296 298 300 299 295 293 293 292 285 290 289 290 285 291 292 292 295 296 296
306 304 299 297 291 295 295 288 276 274 285 286 288 294 293 292 294 295 294 293 291 288 286 290 291 294 295 294 297 296 293 284 283 282 283 286 288 293 293 292 293 294 294 295 296
305 300 296 295 293 294 289 281 268 274 281 292 291 293 289 291 292 294 293 290 293 291 288 286 283 290 293 291 292 292 292 286 280 279 280 285 284 290 294 295 294 295 296 295 296
299 289 289 294 294 294 286 271 270 278 284 286 290 286 288 290 291 291 290 290 292 292 286 285 284 292 293 293 293 289 287 290 283 279 277 280 282 286 287 289 292 293 294 295 294
290 286 286 293 294 289 281 277 279 283 286 287 282 284 284 287 289 290 289 291 291 293 293 288 282 290 292 294 293 291 292 285 284 278 275 278 278 281 284 287 290 291 293 294 293
290 286 288 294 292 285 274 274 282 285 287 285 283 283 284 287 288 288 289 291 293 290 294 292 288 286 290 288 287 288 286 287 287 284 279 277 281 284 285 288 290 291 293 292 291
289 286 291 292 280 269 273 274 286 285 287 286 285 284 284 285 284 287 287 287 294 293 290 292 287 283 285 287 292 290 288 288 284 281 281 278 278 285 287 288 291 291 291 291 291
288 288 293 291 278 270 274 279 283 284 286 286 284 285 284 283 279 283 283 287 293 293 290 289 281 276 281 285 285 287 288 289 287 283 279 276 278 287 287 289 291 291 291 291 290
288 284 286 285 282 278 275 276 278 284 286 286 284 285 283 281 283 280 283 285 290 290 293 290 283 282 279 281 283 281 284 287 287 280 280 280 281 284 286 287 289 291 290 290 290
288 286 286 279 280 279 280 278 278 278 284 285 284 284 282 275 277 280 282 283 287 290 287 285 276 279 281 281 282 282 283 285 284 286 280 282 283 288 286 288 289 291 290 290 290
286 285 285 282 281 280 282 278 280 281 282 280 280 283 283 279 281 280 283 282 282 283 284 283 274 278 272 280 280 277 281 282 285 286 286 287 286 293 289 289 289 290 290 290 290
288 288 290 286 283 282 279 280 280 282 282 285 284 283 280 282 283 282 283 283 283 282 281 279 275 269 269 273 271 270 277 281 282 284 286 283 288 288 288 288 288 289 290 291 291
Wind_Speed
16 16 16 16 17 15 15 15 10 9 10 13 12 10 8 13 8 2 6 4 8 14 10 10 6 5 4 6 3 2 3 3 1 3 2 4 2 2 2 6 2 2 4 6 16
15 16 16 16 16 15 14 12 9 9 12 15 19 14 11 6 6 8 5 5 18 15 14 17 11 9 5 4 3 4 8 4 1 1 3 4 1 5 4 4 2 3 6 15 16
15 16 17 16 16 16 15 15 14 13 16 18 19 19 13 7 2 5 4 8 17 16 15 11 14 7 6 3 5 4 13 5 1 2 2 2 2 2 7 2 4 6 14 17 16
17 17 17 18 18 17 16 16 17 19 14 12 10 14 13 3 7 2 2 10 15 11 11 10 10 9 6 9 3 6 4 7 2 5 4 4 2 3 3 1 5 8 17 17 15
17 18 18 18 18 18 17 18 18 15 13 12 13 12 7 4 5 4 9 6 13 5 9 14 15 8 8 7 7 3 3 6 3 6 5 3 4 1 3 5 1 12 12 13 12
18 19 19 19 19 16 16 17 14 10 13 12 12 14 1 7 5 4 9 5 7 6 7 17 15 5 8 6 3 4 7 4 7 5 5 6 3 1 2 3 6 10 8 8 10
17 18 19 20 20 18 16 14 12 12 11 10 8 3 3 7 3 8 8 4 2 2 3 6 6 6 8 7 5 4 6 5 2 3 4 4 2 1 0 2 6 6 5 6 6
16 18 19 21 22 20 20 15 10 10 10 10 1 2 6 3 5 9 7 4 4 5 3 10 12 9 4 9 6 5 2 6 2 4 2 5 4 0 1 4 5 4 5 6 5
16 17 18 21 21 20 20 14 6 8 4 3 3 3 4 9 6 6 10 4 9 3 6 6 6 6 2 11 5 3 5 6 3 2 5 2 2 1 3 3 5 5 5 5 6
18 18 17 21 22 21 19 9 6 7 3 2 2 1 3 5 5 5 4 4 5 11 5 1 3 4 5 14 17 10 7 5 7 6 2 3 6 3 4 6 6 6 6 6 6
16 19 17 18 22 20 9 5 7 5 8 1 6 4 4 5 6 2 3 1 5 3 7 7 2 8 12 5 5 9 10 5 2 8 5 13 6 6 1 3 5 7 7 7 7
16 18 18 18 18 14 5 6 2 2 5 2 1 3 4 6 7 10 5 5 4 7 5 6 12 10 10 7 7 14 12 6 4 7 4 5 11 6 6 5 6 8 8 8 4
15 17 19 19 5 5 4 3 2 2 3 3 1 3 3 4 5 9 6 2 5 6 1 9 2 3 11 9 9 10 17 8 7 5 2 2 6 5 4 3 3 5 6 4 7
13 15 18 21 5 1 3 6 1 2 3 9 5 3 1 1 5 6 8 8 9 6 5 7 3 8 15 9 9 7 2 10 15 10 4 5 5 7 11 8 6 8 7 7 7
11 13 16 11 1 3 3 5 4 1 5 6 7 3 3 6 1 10 5 5 6 7 1 1 5 8 20 11 5 4 5 10 8 10 5 5 3 3 5 10 12 13 10 8 7
9 10 13 4 2 1 4 3 2 7 4 5 3 6 4 5 3 1 3 3 2 6 10 4 3 4 3 6 5 10 9 7 5 3 5 7 10 5 7 15 15 7 12 10 9
7 9 3 1 2 3 3 4 7 6 4 4 4 3 2 5 3 3 3 3 2 5 2 7 5 2 4 9 3 2 6 2 2 3 4 3 7 10 7 8 8 15 10 9 9
5 5 3 0 2 2 3 7 8 4 4 2 1 2 3 5 3 3 2 2 4 4 4 3 2 7 7 4 2 3 1 5 6 5 2 2 9 7 5 5 6 9 14 11 10
2 3 1 0 2 1 6 6 8 6 2 1 2 4 2 1 1 1 3 1 3 4 4 5 3 0 4 3 4 3 2 2 5 2 2 5 6 10 3 5 6 10 13 16 13
2 2 2 4 0 4 6 5 3 3 1 2 1 3 1 1 2 1 1 1 2 4 3 1 5 3 2 1 8 4 5 3 1 5 5 4 5 7 4 6 6 12 16 15 12
2 1 3 4 2 6 4 7 4 4 2 4 2 2 1 2 1 2 3 1 2 2 4 4 2 2 0 2 4 2 2 3 2 1 2 3 6 5 6 9 13 11 13 14 12
3 1 2 1 5 2 2 5 2 3 1 2 2 3 5 4 3 3 5 3 6 6 4 2 4 3 1 3 1 3 3 3 3 4 3 1 8 1 7 7 9 9 8 9 10
4 1 2 3 2 3 3 3 2 2 4 3 3 3 1 3 1 2 1 5 2 5 5 5 1 4 1 1 3 3 5 3 1 2 6 5 6 2 5 6 5 9 10 11 10
3 2 3 4 2 6 5 3 3 2 2 1 1 1 2 2 3 2 2 2 4 1 3 2 2 3 5 3 5 5 6 11 5 2 2 6 6 6 3 4 7 8 9 10 11
1 3 4 4 4 3 3 6 4 4 1 1 0 4 5 2 3 2 1 2 4 3 2 2 4 1 0 1 1 2 4 12 10 11 6 2 11 13 4 7 8 7 7 10 13
7 5 2 2 3 7 3 7 10 5 7 4 4 6 5 6 7 7 5 2 4 2 4 2 2 2 3 3 2 3 6 9 16 17 18 17 25 13 7 3 6 11 14 14 16
1 2 2 6 4 5 6 7 9 8 2 1 7 6 4 6 5 2 4 4 3 6 6 4 6 4 6 3 4 6 14 17 8 7 11 14 22 5 6 11 10 9 13 16 17
Wind_Direction
354 346 350 353 349 351 342 345 305 299 297 291 284 269 263 307 302 175 244 275 295 215 128 142 187 150 110 112 169 199 165 224 85 202 281 321 119 45 54 110 71 47 150 151 140
355 350 357 353 348 345 342 338 329 289 280 280 283 280 263 284 261 258 256 283 299 233 159 164 160 131 92 108 80 119 190 194 126 13 302 292 292 137 110 124 70 59 49 123 137
351 347 343 344 341 338 333 339 322 293 277 267 260 268 280 139 252 210 319 302 301 263 168 161 147 109 100 118 134 207 189 151 148 24 304 291 76 46 127 212 194 172 150 146 148
342 337 341 346 346 338 328 327 320 319 309 302 298 240 204 141 205 266 345 300 302 263 168 140 156 130 131 143 136 141 132 133 94 4 33 355 14 55 41 334 298 166 158 154 161
338 336 339 342 339 332 334 325 318 327 335 330 338 151 136 197 242 280 320 341 296 202 208 161 169 138 144 120 118 147 149 117 98 43 37 320 43 120 1 344 55 132 149 161 168
337 336 337 339 333 338 340 328 321 335 332 314 273 172 224 218 160 305 345 315 251 172 259 166 176 147 118 139 129 88 81 111 55 19 62 26 358 57 356 28 100 145 151 162 175
337 336 340 338 331 336 336 327 334 324 319 349 153 185 301 245 339 342 345 277 15 348 259 148 103 109 119 105 151 96 77 91 92 24 35 320 304 351 67 121 136 124 138 163 189
337 336 344 337 331 335 333 324 328 321 315 341 188 199 247 353 324 3 316 222 100 302 233 76 97 87 60 120 86 100 80 153 135 182 55 49 258 2 163 149 143 163 177 187 198
334 337 344 334 331 331 325 317 314 321 259 282 329 297 324 343 339 327 266 160 135 140 63 74 56 111 144 135 113 191 154 178 137 324 125 152 253 288 164 206 190 208 216 212 224
333 334 344 337 335 334 330 307 326 348 312 226 151 3 300 302 286 228 217 81 144 122 82 183 98 132 132 174 191 168 171 187 176 196 86 219 258 223 168 180 231 225 231 222 221
335 332 338 340 337 335 351 10 16 336 47 95 293 284 287 264 232 11 5 122 90 119 179 117 215 191 177 181 124 152 180 138 153 166 157 207 239 240 162 148 232 240 233 231 230
335 334 333 335 337 335 51 70 94 228 321 228 303 266 290 325 8 5 324 53 138 156 141 125 234 194 162 154 147 161 168 150 69 130 206 183 230 198 192 199 193 215 231 224 197
332 336 333 334 5 38 64 79 223 183 279 323 341 327 350 346 6 348 12 16 74 75 177 181 39 125 166 160 174 190 184 170 138 133 69 63 285 198 211 205 191 236 226 217 202
330 338 336 329 57 298 36 318 242 192 55 317 350 15 29 299 44 343 18 17 31 62 58 76 314 188 184 205 202 185 130 160 141 144 206 178 269 226 191 207 206 217 217 207 189
324 340 340 9 201 60 280 312 302 327 16 328 326 281 330 61 340 12 9 11 72 31 64 270 6 167 176 182 178 229 126 146 161 174 134 183 266 218 187 210 215 213 211 199 188
316 339 343 2 32 330 311 335 30 42 287 350 325 349 14 27 53 70 66 48 44 56 49 50 359 28 35 71 89 122 85 58 66 89 251 178 198 206 182 208 218 199 202 178 166
308 334 9 49 301 336 337 48 35 97 320 5 354 25 59 3 32 59 56 52 133 152 72 4 21 5 4 86 48 29 122 91 128 188 238 321 221 258 240 234 213 206 183 158 156
300 357 350 117 319 353 44 48 64 252 258 330 27 360 72 348 34 25 97 129 42 61 106 128 104 10 348 36 157 138 116 172 187 194 185 9 236 242 254 211 200 178 163 148 156
18 339 22 259 314 58 65 50 202 213 212 263 56 35 346 15 324 68 53 54 55 24 110 131 83 276 49 28 356 165 113 20 90 45 60 214 279 281 236 240 175 154 153 163 170
119 38 293 320 326 68 71 230 195 205 237 57 312 137 237 275 158 67 224 12 66 24 314 133 109 31 63 50 36 31 136 112 51 151 247 266 278 249 274 240 188 176 172 167 166
102 63 267 326 74 54 158 224 228 228 230 160 211 275 248 208 250 186 175 342 88 59 25 95 76 74 354 181 160 129 139 74 102 169 231 299 261 210 269 219 199 186 177 169 164
162 76 281 56 47 59 166 195 299 258 233 236 165 196 206 175 163 241 210 273 152 156 123 109 99 111 85 38 60 99 165 155 159 194 224 291 278 280 280 244 158 169 164 168 171
142 119 312 105 198 271 298 281 267 207 208 193 225 189 78 203 300 168 210 335 200 149 152 180 288 102 138 265 24 211 171 196 11 120 211 157 259 358 18 81 150 167 166 170 169
120 154 348 53 128 141 154 222 235 235 265 205 212 73 91 82 11 229 130 48 359 331 43 112 119 182 185 172 126 196 182 187 185 198 201 221 284 268 84 166 191 180 167 173 185
237 194 251 170 247 179 200 140 154 200 245 235 189 226 160 103 22 248 32 50 45 21 53 111 191 146 292 104 183 219 187 185 204 220 230 172 232 266 201 204 209 192 168 181 194
138 153 33 127 116 120 209 218 179 177 152 233 177 186 179 158 184 198 139 222 195 99 154 36 262 92 303 307 274 263 235 205 217 233 244 253 270 250 228 178 184 191 183 196 203
173 81 137 149 150 131 205 201 207 140 267 198 167 120 150 215 177 119 116 81 130 155 164 143 136 89 265 354 356 318 219 207 201 220 214 221 239 137 242 232 220 203 195 204 206